This is the latest recevied weather packets stored in our database for station/object WX6HNX-5. If no packets are shown the sender has not sent any weather packets the latest 1 day(s).
| Time | Temp. | Humidity | Pressure | Rain* | Wind** | Luminosity | Snow |
|---|---|---|---|---|---|---|---|
| 1777996469 | 14.44° C | 72% | 1014.5 hPa | 0 mm | 3.13 m/s, 320° | - | - |
| 1777996169 | 14.44° C | 71% | 1014.4 hPa | 0 mm | 2.68 m/s, 314° | - | - |
| 1777995869 | 14.44° C | 71% | 1014.5 hPa | 0 mm | 2.24 m/s, 325° | - | - |
| 1777995270 | 14.44° C | 70% | 1014.4 hPa | 0 mm | 3.13 m/s, 313° | - | - |
| 1777994970 | 14.44° C | 70% | 1014.3 hPa | 0 mm | 2.68 m/s, 315° | - | - |
| 1777994669 | 14.44° C | 69% | 1014.2 hPa | 0 mm | 4.02 m/s, 317° | - | - |
| 1777994369 | 14.44° C | 69% | 1014.3 hPa | 0 mm | 3.58 m/s, 316° | - | - |
| 1777994070 | 14.44° C | 69% | 1014.2 hPa | 0 mm | 2.24 m/s, 318° | - | - |
| 1777993769 | 14.44° C | 69% | 1014.1 hPa | 0 mm | 1.79 m/s, 321° | - | - |
| 1777993469 | 14.44° C | 69% | 1014 hPa | 0 mm | 2.24 m/s, 326° | - | - |
| 1777993022 | 14.44° C | 69% | 1014 hPa | 0 mm | 2.24 m/s, 314° | - | - |
| 1777992722 | 14.44° C | 70% | 1014 hPa | 0 mm | 2.24 m/s, 314° | - | - |
| 1777992423 | 14.44° C | 70% | 1014 hPa | 0 mm | 1.79 m/s, 313° | - | - |
| 1777992122 | 14.44° C | 70% | 1013.9 hPa | 0 mm | 1.34 m/s, 309° | - | - |
| 1777991822 | 14.44° C | 70% | 1013.9 hPa | 0 mm | 1.79 m/s, 309° | - | - |
| 1777991522 | 14.44° C | 70% | 1013.8 hPa | 0 mm | 2.24 m/s, 311° | - | - |
| 1777991222 | 14.44° C | 70% | 1013.9 hPa | 0 mm | 1.79 m/s, 312° | - | - |
| 1777990922 | 14.44° C | 70% | 1013.7 hPa | 0 mm | 1.34 m/s, 305° | - | - |
| 1777990623 | 14.44° C | 69% | 1013.7 hPa | 0 mm | 1.79 m/s, 313° | - | - |
| 1777990061 | 14.44° C | 69% | 1013.6 hPa | 0 mm | 0.89 m/s, 313° | - | - |
| 1777989761 | 14.44° C | 69% | 1013.5 hPa | 0 mm | 0.89 m/s, 316° | - | - |
| 1777989461 | 14.44° C | 68% | 1013.5 hPa | 0 mm | 1.34 m/s, 312° | - | - |
| 1777989161 | 14.44° C | 68% | 1013.5 hPa | 0 mm | 0.89 m/s, 292° | - | - |
| 1777988861 | 14.44° C | 69% | 1013.5 hPa | 0 mm | 0.89 m/s, 306° | - | - |
| 1777988561 | 14.44° C | 69% | 1013.5 hPa | 0 mm | 0.89 m/s, 299° | - | - |
* Rain latest hour (hover to see other rain measurements)
** Current wind speed in m/s (hover to see current wind gust speed)